STARLINK-33664, 63415

Orbit data source: Space-Track

STARLINK-33664, 63415 is a payload satellite owned by SpaceX/Seattle (US) in LEO that was launched on Mon, 31 Mar 2025 UTC via an FALCON 9 launch vehicle from the Air Force Eastern Test Range (AFETR). Payload-class satellites include a variety of spacecraft equipped with specific instruments for various scientific and technological missions. These include communications satellites like Starlink; space stations such as the ISS; scientific satellites like the Hubble; Earth observation satellites from companies like Planet Labs, Umbra, and HawkEye 360; GPS; miniature CubeSats for education and research; and military/defense satellites.

Loading next visibility...
Identifier
63415, 2025-065S
Orbit
LEO
Country
Flag of USUS
Related business
Manufacturer
SpaceX/Seattle
Mission
Operational Commercial Communications
Bus & Motor
STARLINK V2MO, Unknown motor
Mass
575 kg wet, ~530 kg dry
Launch date (UTC)
2025-03-31 (1 year ago)
Launch vehicle
FALCON 9
Launch site
Air Force Eastern Test Range (AFETR)
Object type
Payload
Rocket body
Debris
Shape & HBR
Box + 2 Pan, 17.7 m
Radar Cross Section
36.964 m², Large (>1 m²)

Expand to show TLE details & history
Last TLE update: 15 hours ago

TLE from 15 hours ago
0 STARLINK-33664
1 63415U 25065S   26171.23884191  .00018368  00000-0  67497-3 0  9992
2 63415  42.9974 247.8762 0002439 283.3591  76.6989 15.27595976 68523
Epoch: 2026-06-20T05:43Z
TLE epoch observation values (Epoch: 2026-06-20T05:43:55.941Z)
Latitude
0.00003°
Longitude
-106.56318°
Altitude
482.392 km
Speed
7.626 km/s
True Right ascension
16h 31m 30s
True Declination
0° 00' 00"
Sunlit
Object was in full shadow at epoch
Visualization orbit readout
Latitude
Unknown
Longitude
Unknown
Altitude
Unknown
Speed
Unknown
Apparent Right ascension
Unknown
Apparent Declination
Unknown
Sunlit
N/A
Visualization observer readout
Local Sidereal Time
07:17:37
Azimuth
Unknown
Elevation
Unknown
Doppler factor
Unknown
Orbital elements
Apogee altitude
486.621 km
Perigee altitude
483.273 km
Semi-major axis
6,863.084 km
Eccentricity
0.00024
Inclination
42.9974°
RAAN
247.8762°
Arg. of periapsis
283.3591°
True anomaly
76.7261°
Mean anomaly
76.6989°
Eccentric anomaly
76.7125°
Mean motion
3.81737 °/min
Orbital period
94.31 mins
BSTAR
0.00067497
Loading maneuver chart data...
Computing Atmospheric mass density...
Loading historical data...
Loading historical data...
Loading historical data...
Loading historical data...
Loading historical data...
Loading historical data...
Loading historical data...

Documentation

Showing up to 5 results
|